BEIDOU-3 M12 (C26)

Last updated on Sat Oct 18 2025 00:03:30 GMT+0000 (Coordinated Universal Time)

1 43602U 18067A 25288.59280120 -.00000039 00000+0 00000+0 0 9990 2 43602 54.1847 189.3365 0008654 34.9959 325.1062 1.86227579 48562
UTC large
Height (km)
Speed (km/s)
/
Latitude / Longitude
Inclination (degrees)
Orbital Period (minutes)
Azimuth
Elevation
Range (km)
Doppler Factor

Next 0 passes for location: London (51.5072 / 0.1276)

Sorry there are no passes over London.